Погода в Воротынске

Россия / Калужская область     54°25′47″N   36°02′43″E
темп.,
°C
ветер,
м/с
пор.,
м/с
влажн.,
%
обл.,
%
осадки,
мм/ч
давл.,
гПа
погр.,
м
21 апреля, ср
ср2100:00+2св4699100 0.1 1010477
03:00+2с3699100 0.4 1007253
06:00+1сз2499100 0.4 1005240
09:00+2з3598100 0.5 1006432
12:00+4з4793100 0.1 1007606
15:00+6з4672100 0.2 10091176
18:00+6ююз3681100 0.0 1010343
21:00+4ююз3887100 0.0 1012199
22 апреля, чт
чт2200:00+4ююз4108991 0.1 1012317
03:00+3ююз4109531 0.4 1013311
06:00+4ю5119496 0.3 1014417
09:00+8ююз6982100 0.3 1015612
12:00+11ююз787346 0.0 1015888
15:00+13ю6864100 0.3 10141486
18:00+12ю6107597 1.0 1014778
21:00+9ю5128891 1.6 1014355
23 апреля, пт
пт2300:00+7ю5129266 0.4 1014296
03:00+7ю6149094 0.4 1014374
06:00+6ю5139189 0.1 1014361
09:00+11ю7137733 0.4 1014777
12:00+14ююз8146590 0.6 10131758
15:00+9зюз5786100 2.6 1014521
18:00+6сз359498 4.6 1014335
21:00+6ссз2394100 6.0 1012196
24 апреля, сб
сб2400:00+5сз2495100 5.7 1010257
03:00+3сз5697100 12.4 1009481
06:00+2сз4999100 4.9 1008419
09:00+2сз41199100 10.1 1008512
12:00+5сз61077100 2.6 10081258
15:00+8зсз6955100 2.9 10071889
18:00+7з710615 0.4 1007877
21:00+3з5117654 0.6 1009309
25 апреля, вс
вс2500:00+1зюз511865 0.0 1009391
03:00+1зюз51290100 0.0 1009425
06:00+1зюз6108897 0.0 1009651
09:00+3зюз7107480 0.0 10101076
12:00+7зюз81151100 0.1 10092292
15:00+8зюз8114598 0.3 10092389
18:00+6зюз696232 0.2 10101391
21:00+2юз49815 0.3 1011236